SHT16C EGLL-EGPE

Flight info

Callsign SHT16C
Flight time 1h 7m
Altitude 36000
Route ULTIB T420 TNT UN57 POL UN601 RIBEL DCT ERSON/N0372F250 N560 NESDI DCT GUSSI
Aircraft A320/M-SDE3FGIJ1KRWXY/SB1

Departure

Time 2026-05-07 12:16
Airport London Heathrow Airport (EGLL)

Arrival

Time 2026-05-07 13:24
Airport Inverness Airport (EGPE)
Time Latitude Longitude Altitude Speed Heading
2026-05-07 11:26 51.47087 -0.48584 86 ft 0 kts 270°
2026-05-07 12:08 51.47087 -0.48577 86 ft 3 kts 270°
2026-05-07 12:08 51.47087 -0.48534 86 ft 3 kts 270°
2026-05-07 12:08 51.47088 -0.48500 88 ft 4 kts 249°
2026-05-07 12:09 51.47103 -0.48473 87 ft 4 kts 188°
2026-05-07 12:09 51.47126 -0.48472 88 ft 2 kts 180°
2026-05-07 12:09 51.47127 -0.48472 88 ft 0 kts 180°
2026-05-07 12:12 51.47107 -0.48472 89 ft 10 kts 179°
2026-05-07 12:12 51.47029 -0.48471 88 ft 12 kts 180°
2026-05-07 12:12 51.46940 -0.48471 88 ft 13 kts 180°
2026-05-07 12:13 51.46851 -0.48470 86 ft 12 kts 180°
2026-05-07 12:13 51.46766 -0.48480 86 ft 11 kts 207°
2026-05-07 12:13 51.46743 -0.48583 86 ft 10 kts 267°
2026-05-07 12:13 51.46742 -0.48698 86 ft 10 kts 262°
2026-05-07 12:14 51.46692 -0.48749 88 ft 9 kts 181°
2026-05-07 12:14 51.46623 -0.48757 88 ft 11 kts 192°
2026-05-07 12:14 51.46549 -0.48791 87 ft 11 kts 187°
2026-05-07 12:14 51.46484 -0.48724 87 ft 12 kts 116°
2026-05-07 12:15 51.46478 -0.48652 86 ft 0 kts 91°
2026-05-07 12:15 51.46478 -0.48558 86 ft 31 kts 89°
2026-05-07 12:15 51.46479 -0.47818 87 ft 99 kts 89°
2026-05-07 12:15 51.46484 -0.46423 92 ft 148 kts 90°
2026-05-07 12:16 51.46485 -0.44563 271 ft 175 kts 90°
2026-05-07 12:16 51.46506 -0.42619 991 ft 173 kts 88°
2026-05-07 12:16 51.46763 -0.40749 1686 ft 174 kts 63°
2026-05-07 12:16 51.47513 -0.39175 2139 ft 186 kts 48°
2026-05-07 12:17 51.48417 -0.37523 2497 ft 206 kts 48°
2026-05-07 12:17 51.49394 -0.35734 2921 ft 224 kts 49°
2026-05-07 12:17 51.50461 -0.33735 3343 ft 248 kts 49°
2026-05-07 12:17 51.51617 -0.31541 3986 ft 263 kts 50°
2026-05-07 12:18 51.52530 -0.28972 4824 ft 271 kts 70°
2026-05-07 12:18 51.53208 -0.26115 5647 ft 277 kts 62°
2026-05-07 12:18 51.54420 -0.23719 5938 ft 277 kts 36°
2026-05-07 12:18 51.56146 -0.22467 6006 ft 273 kts
2026-05-07 12:19 51.58017 -0.22635 6020 ft 270 kts 343°
2026-05-07 12:19 51.59842 -0.23380 6007 ft 271 kts 346°
2026-05-07 12:19 51.61691 -0.24111 6471 ft 276 kts 339°
2026-05-07 12:19 51.63399 -0.25440 6819 ft 272 kts 329°
2026-05-07 12:20 51.65048 -0.26960 7306 ft 275 kts 328°
2026-05-07 12:20 51.66705 -0.28532 8177 ft 278 kts 328°
2026-05-07 12:20 51.68384 -0.30146 8992 ft 284 kts 328°
2026-05-07 12:20 51.70076 -0.31785 9785 ft 289 kts 328°
2026-05-07 12:21 51.71829 -0.33486 10395 ft 301 kts 328°
2026-05-07 12:21 51.73696 -0.35299 10652 ft 325 kts 328°
2026-05-07 12:21 51.75669 -0.37211 11179 ft 335 kts 328°
2026-05-07 12:21 51.77685 -0.39163 11878 ft 339 kts 328°
2026-05-07 12:22 51.79724 -0.41130 12578 ft 343 kts 329°
2026-05-07 12:22 51.81784 -0.43123 13301 ft 347 kts 328°
2026-05-07 12:22 51.83869 -0.45147 13980 ft 351 kts 328°
2026-05-07 12:22 51.85971 -0.47187 14608 ft 354 kts 328°
2026-05-07 12:23 51.88098 -0.49253 15228 ft 357 kts 328°
2026-05-07 12:23 51.90235 -0.51332 15847 ft 360 kts 328°
2026-05-07 12:23 51.92388 -0.53433 16464 ft 363 kts 328°
2026-05-07 12:23 51.94555 -0.55548 17084 ft 366 kts 328°
2026-05-07 12:24 51.96725 -0.57664 17698 ft 369 kts 327°
2026-05-07 12:24 51.98960 -0.59850 18339 ft 372 kts 327°
2026-05-07 12:24 52.01155 -0.62000 18865 ft 375 kts 327°
2026-05-07 12:24 52.03422 -0.64223 19420 ft 378 kts 327°
2026-05-07 12:25 52.05683 -0.66439 19963 ft 381 kts 327°
2026-05-07 12:25 52.07938 -0.68650 20494 ft 384 kts 327°
2026-05-07 12:25 52.10236 -0.70907 21011 ft 387 kts 327°
2026-05-07 12:25 52.12551 -0.73187 21509 ft 390 kts 327°
2026-05-07 12:26 52.14881 -0.75490 21997 ft 393 kts 327°
2026-05-07 12:26 52.17229 -0.77812 22480 ft 396 kts 327°
2026-05-07 12:26 52.19601 -0.80158 22971 ft 399 kts 327°
2026-05-07 12:26 52.21984 -0.82519 23453 ft 402 kts 327°
2026-05-07 12:27 52.24391 -0.84905 23882 ft 405 kts 327°
2026-05-07 12:27 52.26811 -0.87303 24279 ft 408 kts 328°
2026-05-07 12:27 52.29257 -0.89733 24663 ft 411 kts 328°
2026-05-07 12:27 52.31712 -0.92175 25025 ft 415 kts 328°
2026-05-07 12:28 52.34160 -0.94607 25410 ft 418 kts 328°
2026-05-07 12:28 52.36649 -0.97085 25802 ft 420 kts 328°
2026-05-07 12:28 52.39153 -0.99583 26209 ft 423 kts 328°
2026-05-07 12:28 52.41673 -1.02102 26577 ft 426 kts 328°
2026-05-07 12:29 52.44209 -1.04639 26936 ft 428 kts 328°
2026-05-07 12:29 52.46761 -1.07194 27303 ft 431 kts 328°
2026-05-07 12:29 52.49326 -1.09772 27667 ft 434 kts 329°
2026-05-07 12:29 52.51909 -1.12376 28033 ft 436 kts 329°
2026-05-07 12:30 52.54509 -1.15001 28381 ft 439 kts 329°
2026-05-07 12:30 52.57127 -1.17643 28726 ft 442 kts 329°
2026-05-07 12:30 52.59763 -1.20298 29094 ft 445 kts 329°
2026-05-07 12:30 52.62415 -1.22968 29464 ft 447 kts 329°
2026-05-07 12:31 52.65067 -1.25651 29837 ft 450 kts 329°
2026-05-07 12:31 52.67710 -1.28330 30177 ft 452 kts 329°
2026-05-07 12:31 52.70396 -1.31057 30482 ft 455 kts 329°
2026-05-07 12:31 52.73095 -1.33802 30790 ft 457 kts 329°
2026-05-07 12:32 52.75813 -1.36570 31134 ft 459 kts 329°
2026-05-07 12:32 52.78526 -1.39336 31569 ft 458 kts 329°
2026-05-07 12:32 52.81233 -1.42103 32018 ft 457 kts 329°
2026-05-07 12:32 52.83935 -1.44871 32444 ft 457 kts 329°
2026-05-07 12:33 52.89335 -1.50412 33313 ft 456 kts 329°
2026-05-07 12:33 52.92027 -1.53183 33746 ft 456 kts 329°
2026-05-07 12:33 52.94721 -1.55956 34135 ft 456 kts 329°
2026-05-07 12:34 52.97413 -1.58733 34488 ft 455 kts 329°
2026-05-07 12:34 53.00106 -1.61516 34839 ft 455 kts 329°
2026-05-07 12:34 53.02758 -1.64259 35209 ft 453 kts 328°
2026-05-07 12:34 53.05486 -1.66871 35566 ft 452 kts 335°
2026-05-07 12:35 53.08389 -1.68849 35898 ft 451 kts 340°
2026-05-07 12:35 53.11334 -1.70656 36047 ft 451 kts 340°
2026-05-07 12:35 53.17222 -1.74305 36064 ft 451 kts 340°
2026-05-07 12:36 53.23111 -1.77968 36064 ft 451 kts 340°
2026-05-07 12:36 53.28001 -1.81027 36065 ft 451 kts 340°
2026-05-07 12:37 53.34858 -1.85337 36057 ft 451 kts 340°
2026-05-07 12:37 53.40753 -1.89030 36063 ft 452 kts 340°
2026-05-07 12:38 53.45649 -1.92103 36061 ft 452 kts 340°
2026-05-07 12:38 53.51539 -1.95815 36073 ft 452 kts 340°
2026-05-07 12:39 53.57428 -1.99538 36056 ft 452 kts 340°
2026-05-07 12:39 53.63324 -2.03284 36070 ft 452 kts 340°
2026-05-07 12:40 53.69206 -2.07028 36061 ft 452 kts 340°
2026-05-07 12:40 53.75099 -2.10800 36057 ft 453 kts 339°
2026-05-07 12:41 53.80965 -2.14716 36047 ft 454 kts 338°
2026-05-07 12:41 53.86824 -2.18784 36049 ft 454 kts 337°
2026-05-07 12:42 53.92671 -2.22832 36041 ft 454 kts 338°
2026-05-07 12:42 53.98491 -2.26820 36051 ft 454 kts 337°
2026-05-07 12:43 54.04331 -2.30917 36051 ft 454 kts 335°
2026-05-07 12:43 54.10085 -2.35363 36048 ft 454 kts 334°
2026-05-07 12:44 54.15798 -2.39916 36047 ft 453 kts 334°
2026-05-07 12:44 54.21548 -2.44430 36046 ft 453 kts 334°
2026-05-07 12:45 54.27289 -2.48881 36045 ft 453 kts 334°
2026-05-07 12:45 54.33015 -2.53340 36043 ft 452 kts 334°
2026-05-07 12:46 54.38699 -2.57798 36043 ft 452 kts 334°
2026-05-07 12:46 54.44421 -2.62308 36038 ft 452 kts 334°
2026-05-07 12:47 54.50128 -2.66814 36041 ft 452 kts 334°
2026-05-07 12:47 54.55841 -2.71326 36043 ft 452 kts 333°
2026-05-07 12:48 54.61555 -2.75863 36037 ft 451 kts 334°
2026-05-07 12:48 54.67267 -2.80416 36026 ft 452 kts 333°
2026-05-07 12:49 54.72974 -2.84979 36032 ft 452 kts 333°
2026-05-07 12:49 54.78679 -2.89552 36030 ft 452 kts 333°
2026-05-07 12:50 54.84377 -2.94132 36025 ft 451 kts 333°
2026-05-07 12:50 54.90030 -2.98686 36023 ft 451 kts 333°
2026-05-07 12:51 54.95729 -3.03292 36016 ft 450 kts 333°
2026-05-07 12:51 55.01402 -3.07894 36029 ft 450 kts 333°
2026-05-07 12:52 55.07079 -3.12517 36020 ft 450 kts 332°
2026-05-07 12:52 55.12751 -3.17153 36011 ft 449 kts 332°
2026-05-07 12:53 55.18417 -3.21809 36011 ft 449 kts 332°
2026-05-07 12:53 55.24049 -3.26424 36016 ft 449 kts 332°
2026-05-07 12:54 55.29707 -3.31079 36016 ft 449 kts 332°
2026-05-07 12:54 55.35360 -3.35758 36015 ft 449 kts 332°
2026-05-07 12:55 55.41015 -3.40459 36010 ft 450 kts 332°
2026-05-07 12:55 55.46676 -3.45181 35695 ft 450 kts 332°
2026-05-07 12:56 55.49508 -3.47540 35458 ft 450 kts 331°
2026-05-07 12:56 55.52335 -3.49900 35205 ft 449 kts 331°
2026-05-07 12:56 55.55160 -3.52258 34951 ft 447 kts 331°
2026-05-07 12:56 55.57976 -3.54607 34705 ft 446 kts 331°
2026-05-07 12:57 55.60776 -3.56947 34458 ft 444 kts 331°
2026-05-07 12:57 55.63564 -3.59289 34206 ft 443 kts 331°
2026-05-07 12:57 55.66343 -3.61636 33958 ft 442 kts 331°
2026-05-07 12:57 55.69145 -3.64015 33524 ft 451 kts 331°
2026-05-07 12:58 55.71991 -3.66437 33027 ft 455 kts 331°
2026-05-07 12:58 55.74853 -3.68867 32556 ft 456 kts 330°
2026-05-07 12:58 55.77720 -3.71294 32084 ft 456 kts 331°
2026-05-07 12:58 55.80588 -3.73719 31618 ft 456 kts 331°
2026-05-07 12:59 55.83420 -3.76120 31154 ft 456 kts 331°
2026-05-07 12:59 55.86285 -3.78557 30703 ft 456 kts 331°
2026-05-07 12:59 55.89150 -3.80999 30269 ft 456 kts 331°
2026-05-07 12:59 55.92012 -3.83448 29781 ft 456 kts 330°
2026-05-07 13:00 55.94883 -3.85912 29249 ft 458 kts 330°
2026-05-07 13:00 55.97756 -3.88385 28747 ft 459 kts 331°
2026-05-07 13:00 56.00638 -3.90869 28248 ft 461 kts 331°
2026-05-07 13:00 56.03531 -3.93359 27756 ft 462 kts 331°
2026-05-07 13:01 56.06441 -3.95861 27272 ft 464 kts 331°
2026-05-07 13:01 56.09362 -3.98374 26806 ft 466 kts 330°
2026-05-07 13:01 56.12294 -4.00904 26342 ft 469 kts 331°
2026-05-07 13:01 56.15240 -4.03453 25877 ft 471 kts 331°
2026-05-07 13:02 56.18196 -4.06017 25436 ft 473 kts 331°
2026-05-07 13:02 56.21162 -4.08591 24987 ft 474 kts 331°
2026-05-07 13:02 56.24103 -4.11151 24555 ft 475 kts 330°
2026-05-07 13:02 56.27069 -4.13737 24071 ft 472 kts 330°
2026-05-07 13:03 56.30016 -4.16312 23594 ft 470 kts 330°
2026-05-07 13:03 56.32954 -4.18878 23054 ft 467 kts 330°
2026-05-07 13:03 56.35861 -4.21422 22498 ft 462 kts 330°
2026-05-07 13:03 56.38733 -4.23944 21961 ft 458 kts 330°
2026-05-07 13:04 56.41583 -4.26457 21431 ft 454 kts 330°
2026-05-07 13:04 56.44473 -4.28734 20898 ft 453 kts 339°
2026-05-07 13:04 56.47544 -4.29857 20390 ft 450 kts 353°
2026-05-07 13:04 56.50645 -4.29653 19947 ft 443 kts
2026-05-07 13:05 56.53643 -4.28909 19511 ft 424 kts
2026-05-07 13:05 56.56490 -4.28204 19098 ft 403 kts
2026-05-07 13:05 56.59231 -4.27537 18694 ft 394 kts
2026-05-07 13:05 56.61938 -4.26888 18292 ft 389 kts
2026-05-07 13:06 56.64604 -4.26254 17824 ft 384 kts
2026-05-07 13:06 56.67242 -4.25630 17358 ft 381 kts
2026-05-07 13:06 56.69859 -4.25010 16902 ft 378 kts
2026-05-07 13:06 56.72453 -4.24395 16459 ft 376 kts
2026-05-07 13:07 56.75036 -4.23771 16019 ft 374 kts
2026-05-07 13:07 56.77616 -4.23140 15593 ft 371 kts
2026-05-07 13:07 56.80177 -4.22514 15163 ft 371 kts
2026-05-07 13:07 56.82727 -4.21893 14739 ft 369 kts
2026-05-07 13:08 56.85265 -4.21274 14374 ft 367 kts
2026-05-07 13:08 56.87792 -4.20657 14007 ft 365 kts
2026-05-07 13:08 56.90313 -4.20045 13632 ft 364 kts
2026-05-07 13:08 56.92822 -4.19437 13222 ft 362 kts
2026-05-07 13:09 56.95311 -4.18832 12819 ft 360 kts
2026-05-07 13:09 56.97758 -4.18232 12427 ft 358 kts
2026-05-07 13:09 57.00225 -4.17624 12021 ft 356 kts
2026-05-07 13:09 57.02674 -4.17016 11635 ft 354 kts
2026-05-07 13:10 57.05108 -4.16411 11259 ft 352 kts
2026-05-07 13:10 57.07542 -4.15809 10890 ft 352 kts
2026-05-07 13:10 57.09961 -4.15213 10508 ft 349 kts
2026-05-07 13:10 57.12367 -4.14626 10095 ft 348 kts
2026-05-07 13:11 57.14744 -4.14042 9878 ft 339 kts
2026-05-07 13:11 57.17019 -4.13476 9895 ft 323 kts
2026-05-07 13:11 57.19214 -4.12927 9899 ft 316 kts
2026-05-07 13:11 57.21392 -4.12386 9891 ft 315 kts
2026-05-07 13:12 57.23555 -4.11735 9846 ft 318 kts 14°
2026-05-07 13:12 57.25520 -4.09906 9645 ft 318 kts 36°
2026-05-07 13:12 57.27283 -4.07416 9321 ft 318 kts 39°
2026-05-07 13:12 57.28990 -4.04898 8925 ft 318 kts 39°
2026-05-07 13:13 57.30724 -4.02326 8502 ft 320 kts 39°
2026-05-07 13:13 57.32460 -3.99751 8088 ft 320 kts 39°
2026-05-07 13:13 57.34200 -3.97151 7673 ft 320 kts 39°
2026-05-07 13:13 57.35927 -3.94575 7263 ft 316 kts 39°
2026-05-07 13:14 57.37606 -3.92073 6930 ft 305 kts 39°
2026-05-07 13:14 57.39264 -3.89604 6614 ft 304 kts 39°
2026-05-07 13:14 57.40914 -3.87151 6288 ft 304 kts 39°
2026-05-07 13:14 57.42559 -3.84702 5959 ft 302 kts 39°
2026-05-07 13:15 57.44198 -3.82276 5795 ft 302 kts 39°
2026-05-07 13:15 57.45838 -3.79839 5469 ft 301 kts 39°
2026-05-07 13:15 57.47453 -3.77442 5111 ft 301 kts 39°
2026-05-07 13:15 57.49090 -3.75008 4756 ft 301 kts 39°
2026-05-07 13:16 57.50733 -3.72563 4388 ft 304 kts 39°
2026-05-07 13:16 57.52380 -3.70133 4072 ft 296 kts 39°
2026-05-07 13:16 57.53963 -3.67812 3945 ft 283 kts 38°
2026-05-07 13:16 57.55484 -3.65556 3980 ft 275 kts 39°
2026-05-07 13:17 57.56976 -3.63381 3977 ft 271 kts 35°
2026-05-07 13:17 57.58702 -3.62075 3763 ft 268 kts
2026-05-07 13:17 57.60501 -3.62445 3551 ft 256 kts 333°
2026-05-07 13:17 57.61893 -3.64335 3320 ft 243 kts 300°
2026-05-07 13:18 57.62601 -3.67050 3144 ft 227 kts 282°
2026-05-07 13:18 57.62915 -3.68897 3020 ft 223 kts 280°
2026-05-07 13:18 57.63486 -3.72565 2772 ft 216 kts 279°
2026-05-07 13:18 57.63754 -3.74326 2670 ft 211 kts 279°
2026-05-07 13:19 57.64252 -3.77730 2506 ft 197 kts 271°
2026-05-07 13:19 57.64275 -3.80210 2374 ft 184 kts 261°
2026-05-07 13:19 57.64118 -3.82475 2242 ft 171 kts 247°
2026-05-07 13:19 57.63793 -3.83808 2154 ft 165 kts 232°
2026-05-07 13:20 57.63081 -3.85462 2087 ft 162 kts 227°
2026-05-07 13:20 57.62347 -3.87072 2015 ft 163 kts 227°
2026-05-07 13:20 57.61612 -3.88683 1999 ft 162 kts 227°
2026-05-07 13:20 57.60921 -3.90197 1881 ft 149 kts 227°
2026-05-07 13:21 57.60267 -3.91628 1737 ft 139 kts 226°
2026-05-07 13:21 57.59655 -3.92966 1568 ft 133 kts 226°
2026-05-07 13:21 57.59061 -3.94265 1359 ft 132 kts 226°
2026-05-07 13:21 57.58461 -3.95574 1165 ft 128 kts 224°
2026-05-07 13:22 57.57880 -3.96843 993 ft 129 kts 224°
2026-05-07 13:22 57.57298 -3.98126 754 ft 127 kts 220°
2026-05-07 13:22 57.56743 -3.99355 592 ft 123 kts 221°
2026-05-07 13:22 57.56172 -4.00594 419 ft 126 kts 223°
2026-05-07 13:23 57.55580 -4.01883 269 ft 133 kts 225°
2026-05-07 13:23 57.54978 -4.03184 116 ft 132 kts 221°
2026-05-07 13:23 57.54403 -4.04417 35 ft 108 kts 229°
2026-05-07 13:23 57.54029 -4.05237 36 ft 58 kts 229°
2026-05-07 13:24 57.53849 -4.05627 39 ft 27 kts 230°
2026-05-07 13:24 57.53749 -4.05845 37 ft 14 kts 229°
2026-05-07 13:24 57.53720 -4.05979 37 ft 7 kts 276°
2026-05-07 13:24 57.53743 -4.06059 38 ft 7 kts 303°
2026-05-07 13:25 57.53771 -4.06133 42 ft 8 kts 308°
2026-05-07 13:25 57.53803 -4.06176 47 ft 4 kts 339°
2026-05-07 13:25 57.53869 -4.06176 47 ft 14 kts
2026-05-07 13:25 57.53951 -4.06165 47 ft 7 kts
2026-05-07 13:26 57.53982 -4.06184 45 ft 3 kts 303°
2026-05-07 13:26 57.53983 -4.06202 46 ft 2 kts 271°
2026-05-07 13:26 57.53984 -4.06236 47 ft 2 kts 273°
2026-05-07 13:26 57.53984 -4.06243 47 ft 0 kts 274°